DLY469 LIML-EDDR

Flight info

Callsign DLY469
Flight time N/A
Altitude 36000
Route ABESI DCT VEDOK/N0471F370 DCT HEUSE DCT LOKTA DCT TEDGO DCT LAMGO DCT KRH DCT BADLI DCT GERKU DCT PIREK DCT ZWN
Aircraft CL60/M-SBDE1E2E3FGHIJ1J4J5J7M3RWXYZ/LB1V1D1

Departure

Time 2026-05-05 17:54
Airport Milano Linate Airport (LIML)

Arrival

Time N/A
Airport Saarbrücken Airport (EDDR)
Time Latitude Longitude Altitude Speed Heading
2026-05-05 17:24 45.45302 9.26288 359 ft 0 kts 66°
2026-05-05 17:50 45.45305 9.26295 359 ft 4 kts 66°
2026-05-05 17:50 45.45296 9.26373 358 ft 13 kts 131°
2026-05-05 17:50 45.45231 9.26517 355 ft 21 kts 111°
2026-05-05 17:51 45.45168 9.26723 352 ft 21 kts 111°
2026-05-05 17:51 45.45168 9.26843 352 ft 10 kts 81°
2026-05-05 17:51 45.45153 9.26970 350 ft 18 kts 111°
2026-05-05 17:51 45.45071 9.27235 350 ft 32 kts 114°
2026-05-05 17:52 45.44955 9.27499 352 ft 31 kts 127°
2026-05-05 17:52 45.44780 9.27680 353 ft 31 kts 173°
2026-05-05 17:52 45.44558 9.27704 348 ft 33 kts 174°
2026-05-05 17:52 45.44317 9.27734 344 ft 35 kts 173°
2026-05-05 17:53 45.44070 9.27765 343 ft 35 kts 173°
2026-05-05 17:53 45.43821 9.27796 343 ft 35 kts 175°
2026-05-05 17:53 45.43584 9.27825 341 ft 29 kts 172°
2026-05-05 17:53 45.43474 9.27841 339 ft 4 kts 204°
2026-05-05 17:54 45.43472 9.27813 339 ft 5 kts 323°
2026-05-05 17:54 45.43601 9.27803 342 ft 58 kts 355°
2026-05-05 17:54 45.44381 9.27719 363 ft 157 kts 356°
2026-05-05 17:54 45.45559 9.27556 1157 ft 180 kts 354°
2026-05-05 17:55 45.46787 9.27213 2325 ft 189 kts 343°
2026-05-05 17:55 45.48022 9.26590 3132 ft 198 kts 341°
2026-05-05 17:55 45.49356 9.25985 3923 ft 207 kts 344°
2026-05-05 17:55 45.50814 9.25472 4571 ft 225 kts 347°
2026-05-05 17:56 45.52340 9.24981 5151 ft 224 kts 347°
2026-05-05 17:56 45.53849 9.24494 5703 ft 225 kts 347°
2026-05-05 17:56 45.55376 9.24001 6260 ft 226 kts 347°
2026-05-05 17:56 45.56905 9.23507 6922 ft 225 kts 347°
2026-05-05 17:57 45.58416 9.23019 7558 ft 229 kts 346°
2026-05-05 17:57 45.60013 9.22501 8259 ft 239 kts 346°
2026-05-05 17:57 45.61638 9.21976 9004 ft 243 kts 345°
2026-05-05 17:57 45.63338 9.21424 9794 ft 260 kts 345°
2026-05-05 17:58 45.65120 9.20846 10695 ft 273 kts 344°
2026-05-05 17:58 45.66974 9.20245 11695 ft 281 kts 344°
2026-05-05 17:58 45.68896 9.19623 12755 ft 286 kts 343°
2026-05-05 17:58 45.70819 9.19001 13814 ft 289 kts 343°
2026-05-05 17:59 45.72769 9.18370 14897 ft 290 kts 343°
2026-05-05 17:59 45.74726 9.17737 15950 ft 290 kts 342°
2026-05-05 17:59 45.76663 9.17110 16958 ft 290 kts 342°
2026-05-05 17:59 45.78620 9.16477 17957 ft 289 kts 341°
2026-05-05 18:00 45.80551 9.15851 18901 ft 288 kts 341°
2026-05-05 18:00 45.82487 9.15223 19806 ft 287 kts 340°
2026-05-05 18:00 45.84425 9.14704 20692 ft 288 kts 346°
2026-05-05 18:00 45.86386 9.14338 21544 ft 287 kts 346°